Weather History for LDSP - November, 2013

Change the Weather History Date:

Friday, November 15, 2013

  Actual Average Record
Temperature  
Mean Temperature 58 °F -  
Max Temperature 67 °F - - ()
Min Temperature 50 °F - - ()
Degree Days  
Heating Degree Days 6    
Growing Degree Days 8 (Base 50)    
Moisture  
Dew Point 50 °F    
Average Humidity 69    
Maximum Humidity 82    
Minimum Humidity 54    
Precipitation  
Precipitation 0.00 in - - ()
Sea Level Pressure  
Sea Level Pressure 30.01 in    
Wind  
Wind Speed 4 mph ()    
Max Wind Speed 10 mph    
Max Gust Speed -    
Visibility 8.7 miles    
Events      
T = Trace of Precipitation, MM = Missing Value Source: Averaged Metar Reports

Daily Weather History Graph

Daily Weather History Graph

Search for Another Location

Airport or City:

Trip Planner

Search our weather history database for the weather conditions in past years. The results will help you decide how hot, cold, wet, or windy it might be!

Date:

Astronomy

Nov. 15, 2013 Rise Set
Actual Time 6:48 AM CET 4:29 PM CET
Civil Twilight 6:17 AM CET 5:00 PM CET
Nautical Twilight 5:42 AM CET 5:35 PM CET
Astronomical Twilight 5:09 AM CET 6:09 PM CET
Moon 3:18 PM CET (11/15) 4:23 AM CET (11/15)
Length of Visible Light 10h 43m
Length of Day
9h 41m
Waxing Gibbous, 95% of the Moon is Illuminated
Nov 15
Waxing Gibbous
Nov 17
Full
Nov 25
Last Quarter
Dec 3
New
Dec 9
First Quarter

Hourly Weather History & Observations

Time (CET) Temp. Dew Point Humidity Pressure Visibility Wind Dir Wind Speed Gust Speed Precip Events Conditions
12:00 AM 51.8 °F 46.4 °F 82% 29.92 in 6.2 mi North 4.6 mph - N/A   Partly Cloudy
12:30 AM 53.6 °F 46.4 °F 77% 29.92 in 6.2 mi North 4.6 mph - N/A   Partly Cloudy
1:00 AM 54 °F 47 °F 71% 29.93 in 12 mi North 2.2 mph - -   Scattered Clouds
1:00 AM 53.6 °F 48.2 °F 82% 29.92 in 6.2 mi Variable 3.5 mph - N/A   Partly Cloudy
1:30 AM 53.6 °F 46.4 °F 77% 29.92 in - NNE 4.6 mph - N/A   Clear
2:00 AM 53.6 °F 46.4 °F 77% 29.92 in 6.2 mi Variable 3.5 mph - N/A   Partly Cloudy
2:30 AM 53.6 °F 46.4 °F 77% 29.92 in 6.2 mi Variable 3.5 mph - N/A   Partly Cloudy
3:00 AM 55.4 °F 48.2 °F 77% 29.92 in 6.2 mi Calm Calm - N/A   Scattered Clouds
3:30 AM 55.4 °F 48.2 °F 77% 29.92 in 6.2 mi Variable 3.5 mph - N/A   Scattered Clouds
4:00 AM 56 °F 49 °F 70% 29.92 in 12 mi North 4.5 mph - -   Scattered Clouds
4:00 AM 55.4 °F 48.2 °F 77% 29.92 in 6.2 mi North 4.6 mph - N/A   Partly Cloudy
4:30 AM 55.4 °F 48.2 °F 77% 29.92 in 6.2 mi North 4.6 mph - N/A   Partly Cloudy
5:00 AM 57.2 °F 48.2 °F 72% 29.92 in 6.2 mi North 4.6 mph - N/A   Partly Cloudy
5:30 AM 57.2 °F 48.2 °F 72% 29.92 in 6.2 mi North 4.6 mph - N/A   Partly Cloudy
6:00 AM 57.2 °F 48.2 °F 72% 29.92 in 6.2 mi Variable 3.5 mph - N/A   Partly Cloudy
6:30 AM 57.2 °F 50.0 °F 77% 29.95 in 6.2 mi Variable 3.5 mph - N/A   Partly Cloudy
7:00 AM 57 °F 49 °F 68% 29.95 in 12 mi North 4.5 mph - -   Scattered Clouds
7:00 AM 57.2 °F 50.0 °F 77% 29.95 in 6.2 mi Variable 3.5 mph - N/A   Partly Cloudy
7:30 AM 57.2 °F 50.0 °F 77% 29.95 in - North 4.6 mph - N/A   Clear
8:00 AM 57.2 °F 51.8 °F 82% 29.98 in 6.2 mi Variable 1.2 mph - N/A   Scattered Clouds
8:30 AM 59.0 °F 53.6 °F 82% 29.98 in 6.2 mi Variable 3.5 mph - N/A   Mostly Cloudy
9:00 AM 60.8 °F 53.6 °F 77% 29.98 in 6.2 mi Variable 2.3 mph - N/A   Mostly Cloudy
9:30 AM 62.6 °F 53.6 °F 72% 29.98 in 6.2 mi NE 4.6 mph - N/A   Mostly Cloudy
10:00 AM 64 °F 54 °F 60% 30.01 in 19 mi East 4.5 mph - -   Scattered Clouds
10:00 AM 64.4 °F 53.6 °F 68% 30.01 in 6.2 mi East 5.8 mph - N/A   Partly Cloudy
10:30 AM 64.4 °F 53.6 °F 68% 30.01 in - East 6.9 mph - N/A   Clear
11:00 AM 66.2 °F 53.6 °F 64% 30.01 in 6.2 mi East 6.9 mph - N/A   Partly Cloudy
11:30 AM 66.2 °F 53.6 °F 64% 30.01 in - East 10.4 mph - N/A   Clear
12:00 PM 66.2 °F 55.4 °F 68% 30.01 in - East 9.2 mph - N/A   Clear
12:30 PM 66.2 °F 53.6 °F 64% 30.01 in - East 8.1 mph - N/A   Clear
1:00 PM 66 °F 54 °F 55% 30.02 in 19 mi East 6.7 mph - -   Mostly Cloudy
1:00 PM 66.2 °F 53.6 °F 64% 30.01 in - East 6.9 mph - N/A   Clear
1:30 PM 66.2 °F 53.6 °F 64% 30.01 in - East 8.1 mph - N/A   Clear
2:00 PM 66.2 °F 53.6 °F 64% 30.01 in - ESE 8.1 mph - N/A   Clear
2:30 PM 66.2 °F 53.6 °F 64% 30.04 in 6.2 mi East 8.1 mph - N/A   Partly Cloudy
3:00 PM 66.2 °F 51.8 °F 60% 30.04 in 6.2 mi ESE 6.9 mph - N/A   Partly Cloudy
3:30 PM 66.2 °F 53.6 °F 64% 30.04 in - ESE 6.9 mph - N/A   Clear
4:00 PM 65 °F 53 °F 56% 30.06 in 19 mi East 4.5 mph - -   Mostly Cloudy
4:00 PM 64.4 °F 53.6 °F 68% 30.04 in - East 4.6 mph - N/A   Clear
4:30 PM 62.6 °F 51.8 °F 68% 30.06 in - Variable 3.5 mph - N/A   Clear
5:00 PM 60.8 °F 51.8 °F 72% 30.06 in - NNE 4.6 mph - N/A   Clear
5:30 PM 60.8 °F 50.0 °F 68% 30.06 in - North 5.8 mph - N/A   Clear
6:00 PM 60.8 °F 50.0 °F 68% 30.09 in - North 5.8 mph - N/A   Clear
6:30 PM 60.8 °F 50.0 °F 68% 30.09 in - North 5.8 mph - N/A   Clear
7:00 PM 61 °F 49 °F 54% 30.11 in 12 mi NNW 4.5 mph - -   Mostly Cloudy
7:00 PM 60.8 °F 48.2 °F 63% 30.09 in - NNW 4.6 mph - N/A   Clear
7:30 PM 60.8 °F 48.2 °F 63% 30.09 in - Variable 2.3 mph - N/A   Clear
8:00 PM 60.8 °F 48.2 °F 63% 30.12 in - Variable 3.5 mph - N/A   Clear
8:30 PM 59.0 °F 46.4 °F 63% 30.12 in - Variable 3.5 mph - N/A   Clear
9:00 PM 59.0 °F 46.4 °F 63% 30.12 in - Variable 3.5 mph - N/A   Clear
9:30 PM 57.2 °F 46.4 °F 67% 30.12 in - Variable 1.2 mph - N/A   Clear
10:00 PM 56 °F 46 °F 59% 30.15 in 19 mi NW 2.2 mph - -   Partly Cloudy
10:00 PM 55.4 °F 46.4 °F 72% 30.12 in - Variable 3.5 mph - N/A   Clear
10:30 PM 55.4 °F 44.6 °F 67% 30.12 in - NNW 5.8 mph - N/A   Clear
11:00 PM 53.6 °F 42.8 °F 67% 30.15 in - North 5.8 mph - N/A   Clear
11:30 PM 55.4 °F 42.8 °F 63% 30.15 in - NNE 6.9 mph - N/A   Clear